"Pseudo-MPEC" for 2019-040A = NORAD 44432 = Spektr-RG

Created 2019 Jul 22 17:06:25 UT using Find_Orb

Click here for an explanation of pseudo-MPECs

Click here for a more recent pseudo-MPEC, giving data since the object made some small maneuvers and reached its Earth-Sun L2 halo orbit.

This is a high-energy observatory (X-rays and gamma rays). It and its booster, 2019-040B are headed to the earth-sun L2 point (the one at opposition, about 1.5 million km out). Now that it's there, Spektr-RG will make small maneuvers from time to time to maintain its place. The booster will pause there briefly, then enter heliocentric orbit.

Click here for some excellent information about this spacecraft. There is also the obligatory Wikipedia page for Spektr-RG.

Jost Jahn has produced a video showing both objects moving across the sky.

TLEs are available for this object and for the booster (and for most of the other objects listed on these pages.)

 
 Astrometry: 
2019-040A     CK190716:21353808 303.44252   +04.85618            16.9 GV     J95
2019-040A     CK190716:21384499 303.43994   +04.85392            16.9 GV     J95
2019-040A     CK190716:21433928 303.43560   +04.85016            17.1 GV     J95
2019-040A     CK190716:21475291 303.43185   +04.84699            17.1 GV     J95
2019-040A    KC2019 07 18.94206420 18 47.02 +02 49 02.5          17.1 GV     J69
2019-040A    KC2019 07 18.94798420 18 44.91 +02 48 46.7          17.3 GV     J69
2019-040A    KC2019 07 18.95389520 18 42.72 +02 48 31.2          17.0 GV     J69
2019-040A    KC2019 07 18.95980120 18 40.51 +02 48 14.9          17.1 GV     J69
2019-040A    KC2019 07 19.94557420 20 31.08 +02 07 13.8          17.2 GV     C95
2019-040A    KC2019 07 19.94752620 20 30.31 +02 07 09.7          18.2 GV     C95
2019-040A    KC2019 07 19.94947620 20 29.50 +02 07 05.8          17.3 GV     C95
2019-040A    KC2019 07 19.95142420 20 28.63 +02 07 00.7          17.7 GV     C95
2019-040A    KC2019 07 19.95337520 20 27.75 +02 06 55.5          17.5 GV     C95
2019-040A    KC2019 07 19.95532520 20 26.89 +02 06 51.0          17.6 GV     C95
2019-040A    KC2019 07 19.95727420 20 26.07 +02 06 46.6          17.5 GV     C95
2019-040A    KC2019 07 19.95922520 20 25.22 +02 06 41.7          17.6 GV     C95
2019-040A    KC2019 07 19.96117520 20 24.29 +02 06 37.3          17.6 GV     C95
2019-040A    KC2019 07 19.96312420 20 23.37 +02 06 32.2          17.3 GV     C95
2019-040A    KC2019 07 19.96507320 20 22.54 +02 06 28.1          17.3 GV     C95
2019-040A    KC2019 07 19.96702420 20 21.68 +02 06 22.4          17.0 GV     C95
2019-040A    KC2019 07 19.96897220 20 20.78 +02 06 18.9          17.5 GV     C95
2019-040A    KC2019 07 19.97092120 20 19.87 +02 06 14.5          17.5 GV     C95
2019-040A    KC2019 07 19.97287020 20 18.96 +02 06 08.8          18.0 GV     C95
2019-040A    KC2019 07 19.97482020 20 18.11 +02 06 04.4          17.6 GV     C95
     A10eWqu  C2019 07 20?qr03A!Q1*?5O?PabB%[HyR.@)]cWK[g8hAstrometryihL`-a5gT08
     A10eWqu  C2019 07 20ZeNCaTXd-1LMnc'W@R9-joO4]tD=credacted;2clickR(:uinS-T08
     A10eWqu  C2019 07 20!Y)2hereCdjcq]KaROjV#4NfH;!8c.E?'YH92]?)@jEMEN=!RQ)rT08
     A10eWqu  C2019 07 20,/AGd3fordM2)Tk+mmr+3U%WRexplanation)oX[!a-aqN.5arbtT08
2019-040A     CK190720:21382031 305.57739   +01.45882            18.2 GV     J95
2019-040A     CK190720:21441750 305.57321   +01.45660            17.3 GV     J95
2019-040A     CK190720:21461745 305.57173   +01.45569            17.8 GV     J95
2019-040A     CK190720:21482244 305.57027   +01.45492            18.0 GV     J95
2019-040A    KC2019 07 20.93797420 22 08.48 +01 26 28.5          17.6 GV     J69
2019-040A    KC2019 07 20.94422120 22 06.47 +01 26 15.6          17.5 GV     J69
2019-040A    KC2019 07 20.95046820 22 04.47 +01 26 02.6          17.5 GV     J69
2019-040A     CK190721:21550634 305.88075   +00.88491            18.1 GV     J95
2019-040A     CK190721:22052625 305.87288   +00.88122            18.2 GV     J95
2019-040A     CK190721:22105590 305.86844   +00.87931            18.0 GV     J95
2019-040A     CK190721:22175262 305.86277   +00.87679            17.9 GV     J95

Station data:
(C95) SATINO Remote Observatory, Haute Provence  (N43.932042 E5.712390)
   France.  Observer J. Jahn. 0.60-m f/3.2 Newtonian reflector + CCD.
(J69) North Observatory, Clanfield  (N50.939017 W1.019656)  UK.  Observer D.
   Briggs. 0.41-m f/4.5 Newtonian reflector + CCD.
(J95) Great Shefford  (N51.474969 W1.447003)  UK.  Observer P. Birtwhistle.
(T08) ATLAS-MLO, Mauna Loa  (N19.535772 W155.576400)  US/Hawaii.  Observers
   L. Denneau, A. Heinze, H. Weiland, J. Tonry, H. Flewelling, A.
   Fitzsimmons, D. Young, B. Stalder. Measurers L. Denneau, A. Heinze, J.
   Tonry. 0.5-m f/2.0 Schmidt + CCD.

Orbital elements:  2019-040A = NORAD 44432 = Spektr-RG
   Perigee 2019 Jul 13.537841 +/- 0.00112 TT = 12:54:29 (JD 2458678.037841)
Epoch 2019 Jul 21.0 TT = JDT 2458685.5                        Gray
M  44.9021152677 +/- 0.029          (J2000 equator)
n   6.0173090587 +/- 0.00478        Peri.    5.8545073 +/- 0.0041
a646152.89445 +/- 342               Node   126.4242950 +/- 0.00012
e   0.986337184 +/- 2.74e-6         Incl.   60.1357581 +/- 0.00028
P  59.83d                  H 28.4   G  0.15   U  9.2
q 8828.2676093 +/- 6.09    Q 0.0085795173 +/- 4.53e-6
From 39 observations 2019 July 16-21; mean residual 0".352
Residuals in arcseconds: 
190716 J95 .017+ .174-    190719 C95 .105+ .085-    190720 T08 .339+ .132-
190716 J95 .157+ .140+    190719 C95 .776+ .114+    190720 T08 .162- .202+
190716 J95 .164- .061-    190719 C95 1.07+ .175-    190720 J95 .357- .115-
190716 J95 .038- .050+    190719 C95 .213+ .039+    190720 J95 .003- .276+
190718 J69 .001- .042-    190719 C95 .447- .442-    190720 J95 .046- .182-
190718 J69 .293+ .026+    190719 C95 .293+ .082+    190720 J95 .263+ .016-
190718 J69 .169+ .436+    190719 C95 .646+ .982-    190720 J69 .061- .159+
190718 J69 .483+ .099+    190719 C95 .424+ .153+    190720 J69 .409- .098+
190719 C95 .983- .203-    190719 C95 .102+ .397+    190720 J69 .185+ .032-
190719 C95 .130+ .272+    190719 C95 .178- .653-    190721 J95 .013- .233-
190719 C95 .700+ .949+    190719 C95 .486+ .394-    190721 J95 .211+ .139-
190719 C95 .426+ .428+    190720 T08 .079+ .054+    190721 J95 .083- .107+
190719 C95 .087+ .181-    190720 T08 .376- .276+    190721 J95 .182- .047+

